Regional Weather Roundup
Issued by NWS

Home | Current Version | Previous Version | Graphics & Text | Print | Product List | Glossary On
Versions: 1 2 3 4 5 6 7 8 9 10 11 12 13 14 15 16 17 18 19 20 21 22 23 24 25 26 27 28 29 30 31 32 33 34 35 36 37 38 39 40 41 42 43 44 45 46 47 48 49 50
000
ASUS43 KOAX 040710
RWRNE

WEATHER ROUNDUP FOR NEBRASKA
NATIONAL WEATHER SERVICE OMAHA NE
100 AM CST WED MAR 04 2015

NOTES: SATELLITE DATA IS BEING USED TO AUGMENT CLOUD COVER ABOVE
       12000 FEET.
       "FAIR" INDICATES FEW OR NO CLOUDS BELOW 12,000 FEET WITH NO
       SIGNIFICANT WEATHER AND/OR OBSTRUCTIONS TO VISIBILITY.

  * THESE STATIONS DO NOT REPORT WEATHER SUCH AS RAIN...SNOW OR FOG.

NEZ001>004-019>022-054>056-040800-
NEBRASKA PANHANDLE

CITY           SKY/WX    TMP DP  RH WIND       PRES   REMARKS
SCOTTSBLUFF    MOCLDY    11   6  81 W6        30.08R WCI   1
ALLIANCE       MOCLDY     9   4  80 NW9       30.05R WCI  -4
CHADRON        PTCLDY     2  -4  76 W8        30.11R WCI -12
KIMBALL        LGT SNOW  12   9  85 N7        29.98S WCI   2
SIDNEY         LGT SNOW  14  10  84 N14       30.03R FOG     WCI  -1
$$

NEZ057>060-069>072-079>082-040800-
SOUTHWEST NEBRASKA

CITY           SKY/WX    TMP DP  RH WIND       PRES   REMARKS
NORTH PLATTE   FLURRIES  16  12  84 N3        30.11S
IMPERIAL         N/A     17  13  84 N6        30.08R FOG     WCI   9
LEXINGTON      LGT SNOW  18  15  88 N10       30.13S WCI   6
MCCOOK         LGT SNOW  19  14  81 NE8       30.11R WCI   9
OGALLALA       LGT SNOW  17  15  90 NW3       30.09R
$$

NEZ005>010-023>029-035>040-094-040800-
NORTH CENTRAL NEBRASKA

CITY           SKY/WX    TMP DP  RH WIND       PRES   REMARKS
VALENTINE      MOCLDY     8   2  76 W6        30.12R WCI  -2
AINSWORTH      PTCLDY    13   2  61 NW7       30.11R WCI   3
BROKEN BOW     CLOUDY    15   9  76 NW3       30.12S
O`NEILL        MOCLDY    17   4  58 NW7       30.14R WCI   7
ORD            MOCLDY    17   4  56 NW8       30.13S WCI   7
THEDFORD       CLOUDY    14  10  84 W3        30.12R
$$

NEZ041-046>049-061>064-073>077-083>087-040800-
SOUTH CENTRAL NEBRASKA

CITY           SKY/WX    TMP DP  RH WIND       PRES   REMARKS
GRAND ISLAND   LGT SNOW  17  13  84 NW8       30.17S VSB 1   WCI   7
AURORA         LGT SNOW  17  13  86 N12       30.15F WCI   4
HASTINGS       LGT SNOW  17  13  84 N13       30.14S FOG     WCI   4
HEBRON         LGT SNOW  20   8  57 N17G24    30.17S WCI   6
HOLDREGE       LGT SNOW  17  14  88 N9        30.12F WCI   6
KEARNEY *      CLOUDY    18  12  79 N6        30.14F WCI   9
YORK           LGT SNOW  18  14  86 N9        30.16F WCI   6
$$

NEZ011>018-030>034-042>045-040800-
NORTHEAST NEBRASKA

CITY           SKY/WX    TMP DP  RH WIND       PRES   REMARKS
NORFOLK        CLOUDY    18   5  57 W3        30.15R
ALBION         CLOUDY    19   5  53 NW7       30.15S WCI  10
BLAIR          CLOUDY    18   7  61 N13       30.14R WCI   5
COLUMBUS *     CLOUDY    18   7  62 W7        30.17F WCI   8
FREMONT        FLURRIES  19  10  68 NW9       30.17R WCI   7
TEKAMAH        CLOUDY    19   7  59 NW10      30.18F WCI   7
WAYNE          CLOUDY    16   6  64 W5        30.18R WCI   8
$$

NEZ050>053-065>068-078-088>093-040800-
SOUTHEAST NEBRASKA

CITY           SKY/WX    TMP DP  RH WIND       PRES   REMARKS
LINCOLN        LGT SNOW  19  11  70 N16       30.20R WCI   4
OMAHA EPPLEY   CLOUDY    18   5  57 N16G26    30.17R WCI   3
BEATRICE       CLOUDY    20   7  58 N20       30.17R WCI   4
FALLS CITY     PTCLDY    19   6  57 N13       30.16R WCI   6
NEBRASKA CITY  MOCLDY    19   2  48 N18G26    30.16R WCI   3
PLATTSMOUTH    CLOUDY    18   4  53 N10G20    30.16R WCI   6
$$

NEZ044-045-051>053-067-040800-
OMAHA AREA

CITY           SKY/WX    TMP DP  RH WIND       PRES   REMARKS
OMAHA EPPLEY   CLOUDY    18   5  57 N16G26    30.17R WCI   3
BLAIR          CLOUDY    18   7  61 N13       30.14R WCI   5
FREMONT        FLURRIES  19  10  68 NW9       30.17R WCI   7
MILLARD        CLOUDY    19   6  56 N7        30.18R WCI  10
OFFUTT AFB     MOCLDY    19   4  52 N15       30.17R WCI   4
PLATTSMOUTH    CLOUDY    18   4  53 N10G20    30.16R WCI   6
WAHOO          LGT SNOW  18  10  73 N10       30.18R WCI   6
$$



USA.gov is the U.S. government's official web portal to all federal, state and local government web resources and services.